Вернуться в каталог

SL-8 DEB

АктивенLEO
NORAD 14812·DEBRIS·🇷🇺 Russia

Запущен Apr 12, 1983 с Plesetsk Cosmodrome

Loading…

Ближайшие Пролёты (ближайшие 24 часа)

TLE

СвежийSource: Space-Track

Эпоха: Sep 14, 2026, 10:12 UTC

1 14812U 83031C   26257.42565405  .00000844  00000-0  22212-3 0  9992
2 14812  74.0517 256.2595 0015687 347.2352 164.0390 14.50543400265045

Отслеживайте SL-8 DEB в реальном времени с AllMySat

Download on the App Store